TimeCDT,TemperatureF,Dew PointF,Humidity,Sea Level PressureIn,VisibilityMPH,Wind Direction,Wind SpeedMPH,Gust SpeedMPH,PrecipitationIn,Events,Conditions,WindDirDegrees,DateUTC
12:53 AM,68.0,44.1,42,29.84,10.0,ENE,3.5,-,N/A,,Clear,60,2013-09-25 05:53:00
1:53 AM,66.0,46.9,50,29.83,10.0,Calm,Calm,-,N/A,,Clear,0,2013-09-25 06:53:00
2:53 AM,64.0,46.0,52,29.84,10.0,Calm,Calm,-,N/A,,Clear,0,2013-09-25 07:53:00
3:53 AM,63.0,46.9,56,29.83,10.0,NW,3.5,-,N/A,,Clear,320,2013-09-25 08:53:00
4:53 AM,63.0,46.9,56,29.82,10.0,Calm,Calm,-,N/A,,Clear,0,2013-09-25 09:53:00
5:53 AM,60.1,48.9,67,29.83,10.0,NNE,8.1,-,N/A,,Clear,30,2013-09-25 10:53:00
6:53 AM,61.0,46.9,60,29.83,10.0,ENE,9.2,-,N/A,,Clear,60,2013-09-25 11:53:00
7:53 AM,60.1,48.0,64,29.85,10.0,NE,3.5,-,N/A,,Clear,40,2013-09-25 12:53:00
8:53 AM,66.9,46.9,49,29.85,10.0,ENE,8.1,-,N/A,,Clear,70,2013-09-25 13:53:00
9:53 AM,73.0,48.0,41,29.86,10.0,East,6.9,-,N/A,,Clear,90,2013-09-25 14:53:00
10:53 AM,80.1,46.9,31,29.86,10.0,SSE,4.6,-,N/A,,Clear,150,2013-09-25 15:53:00
11:53 AM,84.9,45.0,25,29.83,10.0,South,8.1,-,N/A,,Clear,190,2013-09-25 16:53:00
12:53 PM,89.1,48.9,25,29.80,10.0,SSW,10.4,18.4,N/A,,Clear,210,2013-09-25 17:53:00
1:53 PM,91.9,50.0,24,29.76,10.0,South,11.5,19.6,N/A,,Clear,190,2013-09-25 18:53:00
2:53 PM,93.0,48.9,22,29.72,10.0,South,16.1,20.7,N/A,,Clear,190,2013-09-25 19:53:00
3:53 PM,93.0,48.0,21,29.70,10.0,South,13.8,23.0,N/A,,Clear,180,2013-09-25 20:53:00
4:53 PM,93.0,48.9,22,29.69,10.0,South,16.1,20.7,N/A,,Clear,190,2013-09-25 21:53:00
5:53 PM,91.9,53.1,27,29.68,10.0,South,17.3,-,N/A,,Clear,180,2013-09-25 22:53:00
6:53 PM,90.0,54.0,29,29.67,10.0,SSE,13.8,-,N/A,,Clear,160,2013-09-25 23:53:00
7:53 PM,84.0,55.0,37,29.67,10.0,SSE,10.4,-,N/A,,Clear,150,2013-09-26 00:53:00
8:53 PM,80.1,55.0,42,29.67,10.0,SE,10.4,-,N/A,,Clear,140,2013-09-26 01:53:00
9:53 PM,78.1,55.9,46,29.68,10.0,SE,11.5,-,N/A,,Clear,140,2013-09-26 02:53:00
10:53 PM,77.0,57.0,50,29.68,10.0,SE,10.4,-,N/A,,Clear,140,2013-09-26 03:53:00
11:53 PM,75.0,57.0,53,29.69,10.0,SE,8.1,-,N/A,,Clear,130,2013-09-26 04:53:00